Time,TemperatureF,DewpointF,PressureIn,WindDirection,WindDirectionDegrees,WindSpeedMPH,WindSpeedGustMPH,Humidity,HourlyPrecipIn,Conditions,Clouds,dailyrainin,SoftwareType,DateUTC
2013-09-17 00:04:00,80.1,77.0,29.89,SE,128,0.0,1.0,90,0.00,,,0.00,weatherlink.com 1.10,2013-09-17 04:04:00,
2013-09-17 00:19:00,80.0,77.0,29.89,SE,134,0.0,1.0,90,0.00,,,0.00,weatherlink.com 1.10,2013-09-17 04:19:00,
2013-09-17 00:34:00,79.8,77.0,29.88,SE,139,0.0,1.0,90,0.00,,,0.00,weatherlink.com 1.10,2013-09-17 04:34:00,
2013-09-17 00:49:00,79.6,77.0,29.88,SE,140,0.0,1.0,90,0.00,,,0.00,weatherlink.com 1.10,2013-09-17 04:49:00,
2013-09-17 01:04:00,79.2,76.0,29.87,SE,143,0.0,2.0,91,0.00,,,0.00,weatherlink.com 1.10,2013-09-17 05:04:00,
2013-09-17 01:19:00,78.9,76.0,29.87,SSE,149,2.0,2.0,90,0.00,,,0.00,weatherlink.com 1.10,2013-09-17 05:19:00,
2013-09-17 01:34:00,78.5,76.0,29.87,SSE,160,0.0,2.0,91,0.00,,,0.00,weatherlink.com 1.10,2013-09-17 05:34:00,
2013-09-17 01:49:00,78.4,76.0,29.86,ESE,118,0.0,1.0,91,0.00,,,0.00,weatherlink.com 1.10,2013-09-17 05:49:00,
2013-09-17 02:04:00,78.2,75.0,29.86,ESE,118,0.0,1.0,91,0.00,,,0.00,weatherlink.com 1.10,2013-09-17 06:04:00,
2013-09-17 02:19:00,78.0,76.0,29.86,ESE,119,0.0,1.0,92,0.00,,,0.00,weatherlink.com 1.10,2013-09-17 06:19:00,
2013-09-17 02:34:00,77.9,76.0,29.85,ESE,118,0.0,1.0,92,0.00,,,0.00,weatherlink.com 1.10,2013-09-17 06:34:00,
2013-09-17 02:49:00,77.8,76.0,29.85,ESE,118,0.0,1.0,93,0.00,,,0.00,weatherlink.com 1.10,2013-09-17 06:49:00,
2013-09-17 03:04:00,77.9,76.0,29.84,SSE,158,0.0,1.0,92,0.00,,,0.00,weatherlink.com 1.10,2013-09-17 07:04:00,
2013-09-17 03:19:00,77.7,75.0,29.84,SSE,150,0.0,1.0,92,0.00,,,0.00,weatherlink.com 1.10,2013-09-17 07:19:00,
2013-09-17 03:34:00,77.5,75.0,29.84,SSE,150,0.0,1.0,92,0.00,,,0.00,weatherlink.com 1.10,2013-09-17 07:34:00,
2013-09-17 03:49:00,77.7,76.0,29.84,SSE,150,0.0,1.0,93,0.00,,,0.00,weatherlink.com 1.10,2013-09-17 07:49:00,
2013-09-17 04:04:00,77.7,76.0,29.84,SSE,150,0.0,1.0,93,0.00,,,0.00,weatherlink.com 1.10,2013-09-17 08:04:00,
2013-09-17 04:19:00,77.4,75.0,29.84,SE,138,1.0,2.0,92,0.00,,,0.00,weatherlink.com 1.10,2013-09-17 08:19:00,
2013-09-17 04:34:00,77.4,75.0,29.84,SE,141,0.0,2.0,92,0.00,,,0.00,weatherlink.com 1.10,2013-09-17 08:34:00,
2013-09-17 04:49:00,77.1,74.0,29.84,SE,141,0.0,0.0,91,0.00,,,0.00,weatherlink.com 1.10,2013-09-17 08:49:00,
2013-09-17 05:04:00,77.1,75.0,29.85,SE,141,0.0,1.0,92,0.00,,,0.00,weatherlink.com 1.10,2013-09-17 09:04:00,
2013-09-17 05:19:00,77.0,75.0,29.86,SE,141,0.0,1.0,92,0.00,,,0.00,weatherlink.com 1.10,2013-09-17 09:19:00,
2013-09-17 05:34:00,77.4,75.0,29.86,SE,141,0.0,1.0,93,0.00,,,0.00,weatherlink.com 1.10,2013-09-17 09:34:00,
2013-09-17 05:49:00,77.3,75.0,29.86,SE,141,0.0,1.0,93,0.00,,,0.00,weatherlink.com 1.10,2013-09-17 09:49:00,
2013-09-17 06:04:00,77.2,75.0,29.87,SE,141,0.0,1.0,93,0.00,,,0.00,weatherlink.com 1.10,2013-09-17 10:04:00,
2013-09-17 06:19:00,76.8,74.0,29.87,SE,129,0.0,2.0,92,0.00,,,0.00,weatherlink.com 1.10,2013-09-17 10:19:00,
2013-09-17 06:34:00,76.7,75.0,29.87,SE,129,1.0,1.0,93,0.00,,,0.00,weatherlink.com 1.10,2013-09-17 10:34:00,
2013-09-17 06:49:00,76.9,75.0,29.88,SE,139,1.0,1.0,92,0.00,,,0.00,weatherlink.com 1.10,2013-09-17 10:49:00,
2013-09-17 07:04:00,77.3,75.0,29.88,SE,138,0.0,1.0,92,0.00,,,0.00,weatherlink.com 1.10,2013-09-17 11:04:00,
2013-09-17 07:19:00,78.2,76.0,29.88,SE,139,0.0,0.0,92,0.00,,,0.00,weatherlink.com 1.10,2013-09-17 11:19:00,
2013-09-17 07:34:00,80.2,77.0,29.89,SE,138,0.0,1.0,90,0.00,,,0.00,weatherlink.com 1.10,2013-09-17 11:34:00,
2013-09-17 07:49:00,82.9,78.0,29.89,SE,138,0.0,0.0,86,0.00,,,0.00,weatherlink.com 1.10,2013-09-17 11:49:00,
2013-09-17 08:05:00,85.1,78.0,29.90,SE,139,0.0,1.0,79,0.00,,,0.00,weatherlink.com 1.10,2013-09-17 12:05:00,
2013-09-17 08:20:00,84.5,79.0,29.90,East,98,0.0,1.0,82,0.00,,,0.00,weatherlink.com 1.10,2013-09-17 12:20:00,
2013-09-17 08:35:00,85.8,79.0,29.90,East,98,2.0,6.0,80,0.00,,,0.00,weatherlink.com 1.10,2013-09-17 12:35:00,
2013-09-17 08:50:00,86.5,78.0,29.91,East,86,4.0,8.0,76,0.00,,,0.00,weatherlink.com 1.10,2013-09-17 12:50:00,
2013-09-17 09:05:00,86.5,77.0,29.91,ENE,68,4.0,6.0,74,0.00,,,0.00,weatherlink.com 1.10,2013-09-17 13:05:00,
2013-09-17 09:20:00,85.8,77.0,29.91,ENE,73,4.0,7.0,76,0.00,,,0.00,weatherlink.com 1.10,2013-09-17 13:20:00,
2013-09-17 09:35:00,86.1,78.0,29.91,East,95,3.0,6.0,76,0.00,,,0.00,weatherlink.com 1.10,2013-09-17 13:35:00,
2013-09-17 09:50:00,86.8,78.0,29.91,SE,132,3.0,7.0,74,0.00,,,0.00,weatherlink.com 1.10,2013-09-17 13:50:00,
2013-09-17 10:05:00,87.0,78.0,29.91,ENE,73,5.0,9.0,75,0.00,,,0.00,weatherlink.com 1.10,2013-09-17 14:05:00,
2013-09-17 10:20:00,87.2,78.0,29.91,ESE,104,4.0,10.0,75,0.00,,,0.00,weatherlink.com 1.10,2013-09-17 14:20:00,
2013-09-17 10:35:00,86.6,78.0,29.91,SE,127,3.0,6.0,75,0.00,,,0.00,weatherlink.com 1.10,2013-09-17 14:35:00,
2013-09-17 10:50:00,86.6,78.0,29.91,East,90,4.0,7.0,76,0.00,,,0.00,weatherlink.com 1.10,2013-09-17 14:50:00,
2013-09-17 11:05:00,86.5,79.0,29.91,East,96,2.0,7.0,78,0.00,,,0.00,weatherlink.com 1.10,2013-09-17 15:05:00,
2013-09-17 11:20:00,86.1,79.0,29.91,ENE,73,2.0,9.0,79,0.00,,,0.00,weatherlink.com 1.10,2013-09-17 15:20:00,
2013-09-17 11:35:00,86.9,79.0,29.90,NE,39,5.0,9.0,78,0.00,,,0.00,weatherlink.com 1.10,2013-09-17 15:35:00,
2013-09-17 11:50:00,88.0,79.0,29.90,East,100,8.0,11.0,75,0.00,,,0.00,weatherlink.com 1.10,2013-09-17 15:50:00,
2013-09-17 12:05:00,89.0,80.0,29.89,ESE,102,2.0,10.0,74,0.00,,,0.00,weatherlink.com 1.10,2013-09-17 16:05:00,
2013-09-17 12:20:00,89.5,79.0,29.89,ENE,70,6.0,11.0,72,0.00,,,0.00,weatherlink.com 1.10,2013-09-17 16:20:00,
2013-09-17 12:35:00,89.9,77.0,29.88,North,11,5.0,10.0,65,0.00,,,0.00,weatherlink.com 1.10,2013-09-17 16:35:00,
2013-09-17 12:50:00,89.3,76.0,29.87,East,97,6.0,12.0,64,0.00,,,0.00,weatherlink.com 1.10,2013-09-17 16:50:00,
2013-09-17 13:05:00,89.7,75.0,29.86,East,90,9.0,12.0,62,0.00,,,0.00,weatherlink.com 1.10,2013-09-17 17:05:00,
2013-09-17 13:20:00,89.6,76.0,29.86,ENE,70,12.0,12.0,65,0.00,,,0.00,weatherlink.com 1.10,2013-09-17 17:20:00,
2013-09-17 13:35:00,90.6,76.0,29.85,East,83,8.0,11.0,63,0.00,,,0.00,weatherlink.com 1.10,2013-09-17 17:35:00,
2013-09-17 13:50:00,90.5,78.0,29.85,ENE,67,4.0,12.0,66,0.00,,,0.00,weatherlink.com 1.10,2013-09-17 17:50:00,
2013-09-17 14:05:00,90.2,78.0,29.84,NE,43,4.0,11.0,68,0.00,,,0.00,weatherlink.com 1.10,2013-09-17 18:05:00,
2013-09-17 14:20:00,90.4,78.0,29.83,NE,36,7.0,12.0,67,0.00,,,0.00,weatherlink.com 1.10,2013-09-17 18:20:00,
2013-09-17 14:35:00,90.3,77.0,29.83,East,85,5.0,11.0,65,0.00,,,0.00,weatherlink.com 1.10,2013-09-17 18:35:00,
2013-09-17 14:50:00,89.9,77.0,29.83,East,97,5.0,10.0,65,0.00,,,0.00,weatherlink.com 1.10,2013-09-17 18:50:00,
2013-09-17 15:05:00,88.6,75.0,29.82,East,94,4.0,11.0,65,0.00,,,0.00,weatherlink.com 1.10,2013-09-17 19:05:00,
2013-09-17 15:21:00,89.3,75.0,29.82,East,80,3.0,10.0,63,0.00,,,0.00,weatherlink.com 1.10,2013-09-17 19:21:00,
2013-09-17 15:36:00,88.9,74.0,29.82,East,80,7.0,12.0,62,0.00,,,0.00,weatherlink.com 1.10,2013-09-17 19:36:00,
2013-09-17 15:51:00,88.9,75.0,29.82,East,80,2.0,9.0,63,0.00,,,0.00,weatherlink.com 1.10,2013-09-17 19:51:00,
2013-09-17 16:06:00,88.2,74.0,29.82,ESE,113,11.0,11.0,62,0.00,,,0.00,weatherlink.com 1.10,2013-09-17 20:06:00,
2013-09-17 16:21:00,88.1,74.0,29.82,SSE,167,1.0,11.0,64,0.00,,,0.00,weatherlink.com 1.10,2013-09-17 20:21:00,
2013-09-17 16:36:00,87.6,76.0,29.82,ENE,75,6.0,11.0,68,0.00,,,0.00,weatherlink.com 1.10,2013-09-17 20:36:00,
2013-09-17 16:51:00,87.1,75.0,29.82,NE,56,5.0,10.0,68,0.00,,,0.00,weatherlink.com 1.10,2013-09-17 20:51:00,
2013-09-17 17:06:00,86.6,76.0,29.82,East,91,5.0,8.0,71,0.00,,,0.00,weatherlink.com 1.10,2013-09-17 21:06:00,
2013-09-17 17:21:00,86.1,77.0,29.82,SE,124,4.0,9.0,74,0.00,,,0.00,weatherlink.com 1.10,2013-09-17 21:21:00,
2013-09-17 17:36:00,85.7,77.0,29.82,East,96,2.0,8.0,76,0.00,,,0.00,weatherlink.com 1.10,2013-09-17 21:36:00,
2013-09-17 17:51:00,85.4,78.0,29.82,NE,41,4.0,8.0,78,0.00,,,0.00,weatherlink.com 1.10,2013-09-17 21:51:00,
2013-09-17 18:06:00,85.1,78.0,29.82,East,91,2.0,7.0,79,0.00,,,0.00,weatherlink.com 1.10,2013-09-17 22:06:00,
2013-09-17 18:21:00,84.8,78.0,29.83,East,95,1.0,7.0,79,0.00,,,0.00,weatherlink.com 1.10,2013-09-17 22:21:00,
2013-09-17 18:36:00,84.6,78.0,29.84,SE,136,0.0,3.0,80,0.00,,,0.00,weatherlink.com 1.10,2013-09-17 22:36:00,
2013-09-17 18:51:00,84.3,78.0,29.84,East,101,0.0,2.0,81,0.00,,,0.00,weatherlink.com 1.10,2013-09-17 22:51:00,
2013-09-17 19:06:00,84.2,78.0,29.84,SE,136,0.0,4.0,82,0.00,,,0.00,weatherlink.com 1.10,2013-09-17 23:06:00,
2013-09-17 19:21:00,84.3,78.0,29.85,ESE,107,0.0,1.0,81,0.00,,,0.00,weatherlink.com 1.10,2013-09-17 23:21:00,
2013-09-17 19:36:00,83.9,78.0,29.85,SSE,165,0.0,2.0,82,0.00,,,0.00,weatherlink.com 1.10,2013-09-17 23:36:00,
2013-09-17 19:51:00,83.7,78.0,29.85,SE,140,0.0,3.0,83,0.00,,,0.00,weatherlink.com 1.10,2013-09-17 23:51:00,
2013-09-17 20:06:00,83.4,78.0,29.85,ESE,122,0.0,2.0,83,0.00,,,0.00,weatherlink.com 1.10,2013-09-18 00:06:00,
2013-09-17 20:21:00,82.2,77.0,29.86,SE,133,0.0,3.0,85,0.00,,,0.00,weatherlink.com 1.10,2013-09-18 00:21:00,
2013-09-17 20:36:00,81.7,77.0,29.86,ESE,104,1.0,2.0,86,0.00,,,0.00,weatherlink.com 1.10,2013-09-18 00:36:00,
2013-09-17 20:51:00,81.7,78.0,29.87,ESE,105,0.0,1.0,87,0.00,,,0.00,weatherlink.com 1.10,2013-09-18 00:51:00,
2013-09-17 21:06:00,81.8,77.0,29.87,ESE,105,0.0,1.0,86,0.00,,,0.00,weatherlink.com 1.10,2013-09-18 01:06:00,
2013-09-17 21:21:00,81.5,77.0,29.87,SE,134,0.0,2.0,86,0.00,,,0.00,weatherlink.com 1.10,2013-09-18 01:21:00,
2013-09-17 21:36:00,80.9,77.0,29.87,SSE,150,1.0,3.0,87,0.00,,,0.00,weatherlink.com 1.10,2013-09-18 01:36:00,
2013-09-17 21:51:00,80.3,76.0,29.88,East,100,1.0,2.0,87,0.00,,,0.00,weatherlink.com 1.10,2013-09-18 01:51:00,
2013-09-17 22:06:00,80.5,76.0,29.87,East,100,0.0,1.0,87,0.00,,,0.00,weatherlink.com 1.10,2013-09-18 02:06:00,
2013-09-17 22:21:00,80.5,76.0,29.88,East,100,1.0,1.0,86,0.00,,,0.00,weatherlink.com 1.10,2013-09-18 02:21:00,
2013-09-17 22:36:00,80.3,76.0,29.87,SSE,148,0.0,2.0,87,0.00,,,0.00,weatherlink.com 1.10,2013-09-18 02:36:00,
2013-09-17 22:51:00,79.6,76.0,29.87,SSE,148,0.0,0.0,87,0.00,,,0.00,weatherlink.com 1.10,2013-09-18 02:51:00,
2013-09-17 23:06:00,79.6,76.0,29.87,SSE,155,0.0,1.0,88,0.00,,,0.00,weatherlink.com 1.10,2013-09-18 03:06:00,
2013-09-17 23:21:00,79.6,76.0,29.86,SSE,153,0.0,1.0,88,0.00,,,0.00,weatherlink.com 1.10,2013-09-18 03:21:00,
2013-09-17 23:36:00,79.7,76.0,29.86,SE,124,0.0,3.0,88,0.00,,,0.00,weatherlink.com 1.10,2013-09-18 03:36:00,
2013-09-17 23:51:00,79.6,76.0,29.86,SSE,148,0.0,1.0,88,0.00,,,0.00,weatherlink.com 1.10,2013-09-18 03:51:00,